Year,Month,Day,Hour,Minute,Value (Times are PST for temperature in C)
2016,04,30,00,00,8.70
2016,04,30,00,01,8.60
2016,04,30,00,02,8.60
2016,04,30,00,03,8.60
2016,04,30,00,04,8.60
2016,04,30,00,05,8.60
2016,04,30,00,06,8.60
2016,04,30,00,07,8.60
2016,04,30,00,08,8.60
2016,04,30,00,09,8.60
2016,04,30,00,10,8.60
2016,04,30,00,11,8.60
2016,04,30,00,12,8.60
2016,04,30,00,13,8.60
2016,04,30,00,14,8.60
2016,04,30,00,15,8.60
2016,04,30,00,16,8.60
2016,04,30,00,17,8.60
2016,04,30,00,18,8.70
2016,04,30,00,19,8.70
2016,04,30,00,20,8.70
2016,04,30,00,21,8.60
2016,04,30,00,22,8.60
2016,04,30,00,23,8.60
2016,04,30,00,24,8.60
2016,04,30,00,25,8.60
2016,04,30,00,26,8.70
2016,04,30,00,27,8.70
2016,04,30,00,28,8.70
2016,04,30,00,29,8.70
2016,04,30,00,30,8.70
2016,04,30,00,31,8.70
2016,04,30,00,32,8.80
2016,04,30,00,33,8.90
2016,04,30,00,34,8.90
2016,04,30,00,35,9.00
2016,04,30,00,36,9.00
2016,04,30,00,37,9.10
2016,04,30,00,38,9.10
2016,04,30,00,39,9.10
2016,04,30,00,40,9.20
2016,04,30,00,41,9.20
2016,04,30,00,42,9.20
2016,04,30,00,43,9.20
2016,04,30,00,44,9.30
2016,04,30,00,45,9.30
2016,04,30,00,46,9.30
2016,04,30,00,47,9.30
2016,04,30,00,48,9.30
2016,04,30,00,49,9.30
2016,04,30,00,50,9.30
2016,04,30,00,51,9.30
2016,04,30,00,52,9.30
2016,04,30,00,53,9.30
2016,04,30,00,54,9.30
2016,04,30,00,55,9.30
2016,04,30,00,56,9.30
2016,04,30,00,57,9.20
2016,04,30,00,58,9.20
2016,04,30,00,59,9.20
2016,04,30,01,00,9.20
2016,04,30,01,01,9.20
2016,04,30,01,02,9.10
2016,04,30,01,03,9.10
2016,04,30,01,04,9.10
2016,04,30,01,05,9.00
2016,04,30,01,06,9.00
2016,04,30,01,07,9.00
2016,04,30,01,08,9.00
2016,04,30,01,09,9.00
2016,04,30,01,10,9.00
2016,04,30,01,11,9.00
2016,04,30,01,12,8.90
2016,04,30,01,13,8.90
2016,04,30,01,14,8.90
2016,04,30,01,15,8.90
2016,04,30,01,16,8.80
2016,04,30,01,17,8.80
2016,04,30,01,18,8.80
2016,04,30,01,19,8.70
2016,04,30,01,20,8.70
2016,04,30,01,21,8.70
2016,04,30,01,22,8.60
2016,04,30,01,23,8.60
2016,04,30,01,24,8.50
2016,04,30,01,25,8.50
2016,04,30,01,26,8.40
2016,04,30,01,27,8.40
2016,04,30,01,28,8.30
2016,04,30,01,29,8.30
2016,04,30,01,30,8.30
2016,04,30,01,31,8.30
2016,04,30,01,32,8.20
2016,04,30,01,33,8.20
2016,04,30,01,34,8.20
2016,04,30,01,35,8.20
2016,04,30,01,36,8.20
2016,04,30,01,37,8.20
2016,04,30,01,38,8.20
2016,04,30,01,39,8.20
2016,04,30,01,40,8.20
2016,04,30,01,41,8.20
2016,04,30,01,42,8.30
2016,04,30,01,43,8.30
2016,04,30,01,44,8.30
2016,04,30,01,45,8.30
2016,04,30,01,46,8.30
2016,04,30,01,47,8.20
2016,04,30,01,48,8.20
2016,04,30,01,49,8.20
2016,04,30,01,50,8.20
2016,04,30,01,51,8.20
2016,04,30,01,52,8.20
2016,04,30,01,53,8.10
2016,04,30,01,54,8.10
2016,04,30,01,55,8.10
2016,04,30,01,56,8.00
2016,04,30,01,57,8.00
2016,04,30,01,58,8.00
2016,04,30,01,59,7.90
2016,04,30,02,00,7.90
2016,04,30,02,01,7.90
2016,04,30,02,02,7.90
2016,04,30,02,03,7.90
2016,04,30,02,04,7.90
2016,04,30,02,05,7.90
2016,04,30,02,06,7.90
2016,04,30,02,07,7.90
2016,04,30,02,08,7.90
2016,04,30,02,09,7.90
2016,04,30,02,10,7.90
2016,04,30,02,11,7.90
2016,04,30,02,12,7.90
2016,04,30,02,13,7.90
2016,04,30,02,14,7.90
2016,04,30,02,15,7.90
2016,04,30,02,16,7.90
2016,04,30,02,17,7.90
2016,04,30,02,18,7.90
2016,04,30,02,19,7.90
2016,04,30,02,20,7.90
2016,04,30,02,21,7.90
2016,04,30,02,22,7.80
2016,04,30,02,23,7.80
2016,04,30,02,24,7.80
2016,04,30,02,25,7.80
2016,04,30,02,26,7.80
2016,04,30,02,27,7.80
2016,04,30,02,28,7.80
2016,04,30,02,29,7.80
2016,04,30,02,30,7.80
2016,04,30,02,31,7.80
2016,04,30,02,32,7.80
2016,04,30,02,33,7.80
2016,04,30,02,34,7.80
2016,04,30,02,35,7.80
2016,04,30,02,36,7.80
2016,04,30,02,37,7.80
2016,04,30,02,38,7.80
2016,04,30,02,39,7.80
2016,04,30,02,40,7.80
2016,04,30,02,41,7.80
2016,04,30,02,42,7.70
2016,04,30,02,43,7.70
2016,04,30,02,44,7.70
2016,04,30,02,45,7.70
2016,04,30,02,46,7.80
2016,04,30,02,47,7.80
2016,04,30,02,48,7.80
2016,04,30,02,49,7.80
2016,04,30,02,50,7.80
2016,04,30,02,51,7.90
2016,04,30,02,52,7.90
2016,04,30,02,53,7.90
2016,04,30,02,54,8.00
2016,04,30,02,55,8.00
2016,04,30,02,56,8.00
2016,04,30,02,57,8.00
2016,04,30,02,58,8.10
2016,04,30,02,59,8.10
2016,04,30,03,00,8.10
2016,04,30,03,01,8.10
2016,04,30,03,02,8.10
2016,04,30,03,03,8.10
2016,04,30,03,04,8.10
2016,04,30,03,05,8.10
2016,04,30,03,06,8.10
2016,04,30,03,07,8.10
2016,04,30,03,08,8.10
2016,04,30,03,09,8.10
2016,04,30,03,10,8.10
2016,04,30,03,11,8.10
2016,04,30,03,12,8.10
2016,04,30,03,13,8.10
2016,04,30,03,14,8.10
2016,04,30,03,15,8.10
2016,04,30,03,16,8.10
2016,04,30,03,17,8.10
2016,04,30,03,18,8.20
2016,04,30,03,19,8.20
2016,04,30,03,20,8.20
2016,04,30,03,21,8.20
2016,04,30,03,22,8.20
2016,04,30,03,23,8.20
2016,04,30,03,24,8.20
2016,04,30,03,25,8.20
2016,04,30,03,26,8.20
2016,04,30,03,27,8.20
2016,04,30,03,28,8.20
2016,04,30,03,29,8.20
2016,04,30,03,30,8.20
2016,04,30,03,31,8.20
2016,04,30,03,32,8.20
2016,04,30,03,33,8.20
2016,04,30,03,34,8.20
2016,04,30,03,35,8.20
2016,04,30,03,36,8.20
2016,04,30,03,37,8.20
2016,04,30,03,38,8.20
2016,04,30,03,39,8.30
2016,04,30,03,40,8.30
2016,04,30,03,41,8.30
2016,04,30,03,42,8.30
2016,04,30,03,43,8.30
2016,04,30,03,44,8.30
2016,04,30,03,45,8.30
2016,04,30,03,46,8.30
2016,04,30,03,47,8.30
2016,04,30,03,48,8.20
2016,04,30,03,49,8.20
2016,04,30,03,50,8.20
2016,04,30,03,51,8.20
2016,04,30,03,52,8.20
2016,04,30,03,53,8.20
2016,04,30,03,54,8.20
2016,04,30,03,55,8.20
2016,04,30,03,56,8.20
2016,04,30,03,57,8.20
2016,04,30,03,58,8.10
2016,04,30,03,59,8.10
2016,04,30,04,00,8.10
2016,04,30,04,01,8.10
2016,04,30,04,02,8.10
2016,04,30,04,03,8.10
2016,04,30,04,04,8.10
2016,04,30,04,05,8.10
2016,04,30,04,06,8.10
2016,04,30,04,07,8.10
2016,04,30,04,08,8.10
2016,04,30,04,09,8.10
2016,04,30,04,10,8.10
2016,04,30,04,11,8.10
2016,04,30,04,12,8.10
2016,04,30,04,13,8.10
2016,04,30,04,14,8.10
2016,04,30,04,15,8.00
2016,04,30,04,16,8.00
2016,04,30,04,17,8.00
2016,04,30,04,18,8.00
2016,04,30,04,19,7.90
2016,04,30,04,20,7.90
2016,04,30,04,21,7.90
2016,04,30,04,22,7.90
2016,04,30,04,23,7.90
2016,04,30,04,24,7.90
2016,04,30,04,25,7.90
2016,04,30,04,26,7.90
2016,04,30,04,27,7.90
2016,04,30,04,28,7.90
2016,04,30,04,29,7.90
2016,04,30,04,30,7.80
2016,04,30,04,31,7.80
2016,04,30,04,32,7.80
2016,04,30,04,33,7.80
2016,04,30,04,34,7.80
2016,04,30,04,35,7.80
2016,04,30,04,36,7.80
2016,04,30,04,37,7.80
2016,04,30,04,38,7.80
2016,04,30,04,39,7.80
2016,04,30,04,40,7.70
2016,04,30,04,41,7.70
2016,04,30,04,42,7.70
2016,04,30,04,43,7.70
2016,04,30,04,44,7.70
2016,04,30,04,45,7.70
2016,04,30,04,46,7.60
2016,04,30,04,47,7.60
2016,04,30,04,48,7.60
2016,04,30,04,49,7.60
2016,04,30,04,50,7.60
2016,04,30,04,51,7.60
2016,04,30,04,52,7.60
2016,04,30,04,53,7.60
2016,04,30,04,54,7.60
2016,04,30,04,55,7.60
2016,04,30,04,56,7.60
2016,04,30,04,57,7.50
2016,04,30,04,58,7.50
2016,04,30,04,59,7.50
2016,04,30,05,00,7.50
2016,04,30,05,01,7.50
2016,04,30,05,02,7.50
2016,04,30,05,03,7.50
2016,04,30,05,04,7.40
2016,04,30,05,05,7.40
2016,04,30,05,06,7.40
2016,04,30,05,07,7.40
2016,04,30,05,08,7.40
2016,04,30,05,09,7.40
2016,04,30,05,10,7.40
2016,04,30,05,11,7.40
2016,04,30,05,12,7.40
2016,04,30,05,13,7.40
2016,04,30,05,14,7.40
2016,04,30,05,15,7.40
2016,04,30,05,16,7.40
2016,04,30,05,17,7.40
2016,04,30,05,18,7.40
2016,04,30,05,19,7.40
2016,04,30,05,20,7.40
2016,04,30,05,21,7.40
2016,04,30,05,22,7.40
2016,04,30,05,23,7.40
2016,04,30,05,24,7.40
2016,04,30,05,25,7.40
2016,04,30,05,26,7.40
2016,04,30,05,27,7.40
2016,04,30,05,28,7.40
2016,04,30,05,29,7.50
2016,04,30,05,30,7.50
2016,04,30,05,31,7.60
2016,04,30,05,32,7.60
2016,04,30,05,33,7.60
2016,04,30,05,34,7.60
2016,04,30,05,35,7.60
2016,04,30,05,36,7.60
2016,04,30,05,37,7.70
2016,04,30,05,38,7.70
2016,04,30,05,39,7.70
2016,04,30,05,40,7.70
2016,04,30,05,41,7.70
2016,04,30,05,42,7.70
2016,04,30,05,43,7.80
2016,04,30,05,44,7.80
2016,04,30,05,45,7.80
2016,04,30,05,46,7.80
2016,04,30,05,47,7.80
2016,04,30,05,48,7.80
2016,04,30,05,49,7.80
2016,04,30,05,50,7.80
2016,04,30,05,51,7.80
2016,04,30,05,52,7.90
2016,04,30,05,53,7.90
2016,04,30,05,54,7.90
2016,04,30,05,55,7.90
2016,04,30,05,56,7.90
2016,04,30,05,57,7.90
2016,04,30,05,58,7.90
2016,04,30,05,59,7.90
2016,04,30,06,00,7.90
2016,04,30,06,01,7.90
2016,04,30,06,02,7.90
2016,04,30,06,03,7.90
2016,04,30,06,04,7.90
2016,04,30,06,05,7.90
2016,04,30,06,06,7.90
2016,04,30,06,07,7.90
2016,04,30,06,08,7.90
2016,04,30,06,09,7.90
2016,04,30,06,10,7.90
2016,04,30,06,11,7.90
2016,04,30,06,12,7.90
2016,04,30,06,13,7.90
2016,04,30,06,14,7.90
2016,04,30,06,15,7.90
2016,04,30,06,16,7.90
2016,04,30,06,17,7.90
2016,04,30,06,18,7.90
2016,04,30,06,19,7.90
2016,04,30,06,20,7.90
2016,04,30,06,21,7.90
2016,04,30,06,22,7.90
2016,04,30,06,23,7.90
2016,04,30,06,24,7.90
2016,04,30,06,25,7.90
2016,04,30,06,26,7.90
2016,04,30,06,27,7.90
2016,04,30,06,28,7.90
2016,04,30,06,29,7.90
2016,04,30,06,30,7.90
2016,04,30,06,31,7.90
2016,04,30,06,32,7.90
2016,04,30,06,33,7.90
2016,04,30,06,34,7.90
2016,04,30,06,35,7.90
2016,04,30,06,36,7.90
2016,04,30,06,37,7.90
2016,04,30,06,38,7.90
2016,04,30,06,39,7.90
2016,04,30,06,40,8.00
2016,04,30,06,41,8.00
2016,04,30,06,42,8.00
2016,04,30,06,43,8.10
2016,04,30,06,44,8.10
2016,04,30,06,45,8.10
2016,04,30,06,46,8.10
2016,04,30,06,47,8.10
2016,04,30,06,48,8.20
2016,04,30,06,49,8.20
2016,04,30,06,50,8.20
2016,04,30,06,51,8.20
2016,04,30,06,52,8.30
2016,04,30,06,53,8.30
2016,04,30,06,54,8.30
2016,04,30,06,55,8.40
2016,04,30,06,56,8.40
2016,04,30,06,57,8.40
2016,04,30,06,58,8.50
2016,04,30,06,59,8.50
2016,04,30,07,00,8.60
2016,04,30,07,01,8.60
2016,04,30,07,02,8.70
2016,04,30,07,03,8.70
2016,04,30,07,04,8.80
2016,04,30,07,05,8.80
2016,04,30,07,06,8.80
2016,04,30,07,07,8.90
2016,04,30,07,08,8.90
2016,04,30,07,09,8.90
2016,04,30,07,10,9.00
2016,04,30,07,11,9.00
2016,04,30,07,12,9.10
2016,04,30,07,13,9.10
2016,04,30,07,14,9.20
2016,04,30,07,15,9.20
2016,04,30,07,16,9.20
2016,04,30,07,17,9.30
2016,04,30,07,18,9.30
2016,04,30,07,19,9.30
2016,04,30,07,20,9.30
2016,04,30,07,21,9.40
2016,04,30,07,22,9.40
2016,04,30,07,23,9.50
2016,04,30,07,24,9.50
2016,04,30,07,25,9.50
2016,04,30,07,26,9.60
2016,04,30,07,27,9.60
2016,04,30,07,28,9.60
2016,04,30,07,29,9.60
2016,04,30,07,30,9.60
2016,04,30,07,31,9.70
2016,04,30,07,32,9.70
2016,04,30,07,33,9.70
2016,04,30,07,34,9.70
2016,04,30,07,35,9.70
2016,04,30,07,36,9.70
2016,04,30,07,37,9.70
2016,04,30,07,38,9.70
2016,04,30,07,39,9.70
2016,04,30,07,40,9.70
2016,04,30,07,41,9.70
2016,04,30,07,42,9.80
2016,04,30,07,43,9.80
2016,04,30,07,44,9.80
2016,04,30,07,45,9.80
2016,04,30,07,46,9.80
2016,04,30,07,47,9.90
2016,04,30,07,48,9.90
2016,04,30,07,49,9.90
2016,04,30,07,50,9.90
2016,04,30,07,51,9.90
2016,04,30,07,52,10.00
2016,04,30,07,53,10.00
2016,04,30,07,54,10.10
2016,04,30,07,55,10.10
2016,04,30,07,56,10.10
2016,04,30,07,57,10.20
2016,04,30,07,58,10.20
2016,04,30,07,59,10.30
2016,04,30,08,00,10.30
2016,04,30,08,01,10.30
2016,04,30,08,02,10.30
2016,04,30,08,03,10.30
2016,04,30,08,04,10.40
2016,04,30,08,05,10.40
2016,04,30,08,06,10.40
2016,04,30,08,07,10.40
2016,04,30,08,08,10.40
2016,04,30,08,09,10.40
2016,04,30,08,10,10.50
2016,04,30,08,11,10.50
2016,04,30,08,12,10.60
2016,04,30,08,13,10.60
2016,04,30,08,14,10.60
2016,04,30,08,15,10.60
2016,04,30,08,16,10.60
2016,04,30,08,17,10.70
2016,04,30,08,18,10.70
2016,04,30,08,19,10.70
2016,04,30,08,20,10.70
2016,04,30,08,21,10.70
2016,04,30,08,22,10.70
2016,04,30,08,23,10.70
2016,04,30,08,24,10.70
2016,04,30,08,25,10.70
2016,04,30,08,26,10.80
2016,04,30,08,27,10.80
2016,04,30,08,28,10.80
2016,04,30,08,29,10.80
2016,04,30,08,30,10.80
2016,04,30,08,31,10.80
2016,04,30,08,32,10.80
2016,04,30,08,33,10.80
2016,04,30,08,34,10.80
2016,04,30,08,35,10.80
2016,04,30,08,36,10.80
2016,04,30,08,37,10.80
2016,04,30,08,38,10.80
2016,04,30,08,39,10.80
2016,04,30,08,40,10.90
2016,04,30,08,41,10.90
2016,04,30,08,42,10.90
2016,04,30,08,43,10.90
2016,04,30,08,44,10.90
2016,04,30,08,45,10.90
2016,04,30,08,46,10.90
2016,04,30,08,47,10.90
2016,04,30,08,48,11.00
2016,04,30,08,49,11.00
2016,04,30,08,50,11.00
2016,04,30,08,51,11.00
2016,04,30,08,52,11.00
2016,04,30,08,53,11.10
2016,04,30,08,54,11.10
2016,04,30,08,55,11.10
2016,04,30,08,56,11.10
2016,04,30,08,57,11.10
2016,04,30,08,58,11.10
2016,04,30,08,59,11.10
2016,04,30,09,00,11.20
2016,04,30,09,01,11.20
2016,04,30,09,02,11.20
2016,04,30,09,03,11.20
2016,04,30,09,04,11.20
2016,04,30,09,05,11.20
2016,04,30,09,06,11.20
2016,04,30,09,07,11.20
2016,04,30,09,08,11.30
2016,04,30,09,09,11.30
2016,04,30,09,10,11.30
2016,04,30,09,11,11.30
2016,04,30,09,12,11.30
2016,04,30,09,13,11.30
2016,04,30,09,14,11.30
2016,04,30,09,15,11.30
2016,04,30,09,16,11.30
2016,04,30,09,17,11.30
2016,04,30,09,18,11.30
2016,04,30,09,19,11.30
2016,04,30,09,20,11.40
2016,04,30,09,21,11.40
2016,04,30,09,22,11.40
2016,04,30,09,23,11.40
2016,04,30,09,24,11.40
2016,04,30,09,25,11.40
2016,04,30,09,26,11.40
2016,04,30,09,27,11.50
2016,04,30,09,28,11.50
2016,04,30,09,29,11.50
2016,04,30,09,30,11.60
2016,04,30,09,31,11.60
2016,04,30,09,32,11.60
2016,04,30,09,33,11.60
2016,04,30,09,34,11.60
2016,04,30,09,35,11.70
2016,04,30,09,36,11.70
2016,04,30,09,37,11.80
2016,04,30,09,38,11.80
2016,04,30,09,39,11.80
2016,04,30,09,40,11.90
2016,04,30,09,41,11.90
2016,04,30,09,42,12.00
2016,04,30,09,43,12.00
2016,04,30,09,44,12.10
2016,04,30,09,45,12.10
2016,04,30,09,46,12.10
2016,04,30,09,47,12.20
2016,04,30,09,48,12.20
2016,04,30,09,49,12.30
2016,04,30,09,50,12.30
2016,04,30,09,51,12.40
2016,04,30,09,52,12.40
2016,04,30,09,53,12.50
2016,04,30,09,54,12.50
2016,04,30,09,55,12.50
2016,04,30,09,56,12.50
2016,04,30,09,57,12.50
2016,04,30,09,58,12.60
2016,04,30,09,59,12.60
2016,04,30,10,00,12.60
2016,04,30,10,01,12.60
2016,04,30,10,02,12.70
2016,04,30,10,03,12.70
2016,04,30,10,04,12.70
2016,04,30,10,05,12.80
2016,04,30,10,06,12.80
2016,04,30,10,07,12.80
2016,04,30,10,08,12.80
2016,04,30,10,09,12.80
2016,04,30,10,10,12.80
2016,04,30,10,11,12.80
2016,04,30,10,12,12.80
2016,04,30,10,13,12.80
2016,04,30,10,14,12.80
2016,04,30,10,15,12.80
2016,04,30,10,16,12.80
2016,04,30,10,17,12.90
2016,04,30,10,18,12.90
2016,04,30,10,19,13.00
2016,04,30,10,20,13.00
2016,04,30,10,21,13.00
2016,04,30,10,22,13.00
2016,04,30,10,23,13.10
2016,04,30,10,24,13.10
2016,04,30,10,25,13.20
2016,04,30,10,26,13.20
2016,04,30,10,27,13.20
2016,04,30,10,28,13.20
2016,04,30,10,29,13.20
2016,04,30,10,30,13.30
2016,04,30,10,31,13.30
2016,04,30,10,32,13.30
2016,04,30,10,33,13.30
2016,04,30,10,34,13.30
2016,04,30,10,35,13.40
2016,04,30,10,36,13.40
2016,04,30,10,37,13.40
2016,04,30,10,38,13.50
2016,04,30,10,39,13.50
2016,04,30,10,40,13.60
2016,04,30,10,41,13.60
2016,04,30,10,42,13.60
2016,04,30,10,43,13.60
2016,04,30,10,44,13.70
2016,04,30,10,45,13.70
2016,04,30,10,46,13.70
2016,04,30,10,47,13.80
2016,04,30,10,48,13.80
2016,04,30,10,49,13.90
2016,04,30,10,50,13.90
2016,04,30,10,51,14.00
2016,04,30,10,52,14.10
2016,04,30,10,53,14.10
2016,04,30,10,54,14.10
2016,04,30,10,55,14.10
2016,04,30,10,56,14.10
2016,04,30,10,57,14.10
2016,04,30,10,58,14.10
2016,04,30,10,59,14.10
2016,04,30,11,00,14.20
2016,04,30,11,01,14.20
2016,04,30,11,02,14.30
2016,04,30,11,03,14.30
2016,04,30,11,04,14.30
2016,04,30,11,05,14.30
2016,04,30,11,06,14.40
2016,04,30,11,07,14.40
2016,04,30,11,08,14.50
2016,04,30,11,09,14.50
2016,04,30,11,10,14.40
2016,04,30,11,11,14.40
2016,04,30,11,12,14.40
2016,04,30,11,13,14.40
2016,04,30,11,14,14.50
2016,04,30,11,15,14.50
2016,04,30,11,16,14.60
2016,04,30,11,17,14.60
2016,04,30,11,18,14.60
2016,04,30,11,19,14.60
2016,04,30,11,20,14.70
2016,04,30,11,21,14.70
2016,04,30,11,22,14.70
2016,04,30,11,23,14.80
2016,04,30,11,24,14.80
2016,04,30,11,25,14.80
2016,04,30,11,26,14.80
2016,04,30,11,27,14.80
2016,04,30,11,28,14.80
2016,04,30,11,29,14.80
2016,04,30,11,30,14.70
2016,04,30,11,31,14.70
2016,04,30,11,32,14.70
2016,04,30,11,33,14.60
2016,04,30,11,34,14.60
2016,04,30,11,35,14.60
2016,04,30,11,36,14.60
2016,04,30,11,37,14.60
2016,04,30,11,38,14.60
2016,04,30,11,39,14.70
2016,04,30,11,40,14.80
2016,04,30,11,41,14.90
2016,04,30,11,42,14.90
2016,04,30,11,43,15.00
2016,04,30,11,44,15.00
2016,04,30,11,45,15.10
2016,04,30,11,46,15.20
2016,04,30,11,47,15.30
2016,04,30,11,48,15.40
2016,04,30,11,49,15.40
2016,04,30,11,50,15.40
2016,04,30,11,51,15.30
2016,04,30,11,52,15.20
2016,04,30,11,53,15.20
2016,04,30,11,54,15.10
2016,04,30,11,55,15.10
2016,04,30,11,56,15.10
2016,04,30,11,57,15.00
2016,04,30,11,58,15.00
2016,04,30,11,59,15.00
2016,04,30,12,00,15.00
2016,04,30,12,01,15.00
2016,04,30,12,02,15.10
2016,04,30,12,03,15.20
2016,04,30,12,04,15.30
2016,04,30,12,05,15.40
2016,04,30,12,06,15.40
2016,04,30,12,07,15.40
2016,04,30,12,08,15.40
2016,04,30,12,09,15.50
2016,04,30,12,10,15.50
2016,04,30,12,11,15.50
2016,04,30,12,12,15.50
2016,04,30,12,13,15.60
2016,04,30,12,14,15.60
2016,04,30,12,15,15.70
2016,04,30,12,16,15.80
2016,04,30,12,17,15.90
2016,04,30,12,18,15.90
2016,04,30,12,19,16.00
2016,04,30,12,20,16.10
2016,04,30,12,21,16.20
2016,04,30,12,22,16.20
2016,04,30,12,23,16.30
2016,04,30,12,24,16.40
2016,04,30,12,25,16.30
2016,04,30,12,26,16.30
2016,04,30,12,27,16.20
2016,04,30,12,28,16.20
2016,04,30,12,29,16.20
2016,04,30,12,30,16.20
2016,04,30,12,31,16.30
2016,04,30,12,32,16.40
2016,04,30,12,33,16.30
2016,04,30,12,34,16.30
2016,04,30,12,35,16.20
2016,04,30,12,36,16.20
2016,04,30,12,37,16.20
2016,04,30,12,38,16.20
2016,04,30,12,39,16.20
2016,04,30,12,40,16.10
2016,04,30,12,41,16.10
2016,04,30,12,42,16.10
2016,04,30,12,43,16.10
2016,04,30,12,44,16.10
2016,04,30,12,45,16.00
2016,04,30,12,46,16.00
2016,04,30,12,47,15.90
2016,04,30,12,48,15.80
2016,04,30,12,49,15.90
2016,04,30,12,50,15.90
2016,04,30,12,51,15.90
2016,04,30,12,52,15.90
2016,04,30,12,53,16.00
2016,04,30,12,54,16.10
2016,04,30,12,55,16.20
2016,04,30,12,56,16.20
2016,04,30,12,57,16.30
2016,04,30,12,58,16.30
2016,04,30,12,59,16.40
2016,04,30,13,00,16.40
2016,04,30,13,01,16.40
2016,04,30,13,02,16.40
2016,04,30,13,03,16.50
2016,04,30,13,04,16.60
2016,04,30,13,05,16.70
2016,04,30,13,06,16.80
2016,04,30,13,07,16.80
2016,04,30,13,08,16.90
2016,04,30,13,09,16.90
2016,04,30,13,10,16.90
2016,04,30,13,11,16.90
2016,04,30,13,12,17.00
2016,04,30,13,13,17.00
2016,04,30,13,14,17.10
2016,04,30,13,15,17.20
2016,04,30,13,16,17.20
2016,04,30,13,17,17.30
2016,04,30,13,18,17.30
2016,04,30,13,19,17.30
2016,04,30,13,20,17.30
2016,04,30,13,21,17.40
2016,04,30,13,22,17.40
2016,04,30,13,23,17.50
2016,04,30,13,24,17.60
2016,04,30,13,25,17.60
2016,04,30,13,26,17.70
2016,04,30,13,27,17.70
2016,04,30,13,28,17.60
2016,04,30,13,29,17.60
2016,04,30,13,30,17.60
2016,04,30,13,31,17.60
2016,04,30,13,32,17.60
2016,04,30,13,33,17.60
2016,04,30,13,34,17.70
2016,04,30,13,35,17.60
2016,04,30,13,36,17.50
2016,04,30,13,37,17.40
2016,04,30,13,38,17.30
2016,04,30,13,39,17.30
2016,04,30,13,40,17.30
2016,04,30,13,41,17.20
2016,04,30,13,42,17.10
2016,04,30,13,43,17.00
2016,04,30,13,44,17.00
2016,04,30,13,45,16.90
2016,04,30,13,46,16.80
2016,04,30,13,47,16.80
2016,04,30,13,48,16.70
2016,04,30,13,49,16.70
2016,04,30,13,50,16.80
2016,04,30,13,51,16.80
2016,04,30,13,52,16.90
2016,04,30,13,53,17.00
2016,04,30,13,54,17.00
2016,04,30,13,55,17.10
2016,04,30,13,56,17.20
2016,04,30,13,57,17.20
2016,04,30,13,58,17.30
2016,04,30,13,59,17.50
2016,04,30,14,00,17.60
2016,04,30,14,01,17.60
2016,04,30,14,02,17.60
2016,04,30,14,03,17.70
2016,04,30,14,04,17.80
2016,04,30,14,05,17.90
2016,04,30,14,06,17.90
2016,04,30,14,07,17.90
2016,04,30,14,08,17.90
2016,04,30,14,09,18.00
2016,04,30,14,10,18.00
2016,04,30,14,11,18.10
2016,04,30,14,12,18.20
2016,04,30,14,13,18.30
2016,04,30,14,14,18.30
2016,04,30,14,15,18.30
2016,04,30,14,16,18.30
2016,04,30,14,17,18.30
2016,04,30,14,18,18.30
2016,04,30,14,19,18.30
2016,04,30,14,20,18.40
2016,04,30,14,21,18.50
2016,04,30,14,22,18.60
2016,04,30,14,23,18.60
2016,04,30,14,24,18.60
2016,04,30,14,25,18.70
2016,04,30,14,26,18.70
2016,04,30,14,27,18.70
2016,04,30,14,28,18.80
2016,04,30,14,29,18.80
2016,04,30,14,30,18.60
2016,04,30,14,31,18.40
2016,04,30,14,32,18.10
2016,04,30,14,33,18.00
2016,04,30,14,34,17.80
2016,04,30,14,35,17.80
2016,04,30,14,36,17.70
2016,04,30,14,37,17.70
2016,04,30,14,38,17.70
2016,04,30,14,39,17.80
2016,04,30,14,40,17.80
2016,04,30,14,41,17.90
2016,04,30,14,42,17.90
2016,04,30,14,43,18.00
2016,04,30,14,44,18.00
2016,04,30,14,45,18.10
2016,04,30,14,46,18.20
2016,04,30,14,47,18.10
2016,04,30,14,48,18.00
2016,04,30,14,49,18.00
2016,04,30,14,50,17.90
2016,04,30,14,51,17.80
2016,04,30,14,52,17.80
2016,04,30,14,53,17.80
2016,04,30,14,54,17.70
2016,04,30,14,55,17.80
2016,04,30,14,56,17.80
2016,04,30,14,57,17.90
2016,04,30,14,58,17.90
2016,04,30,14,59,17.80
2016,04,30,15,00,17.80
2016,04,30,15,01,17.70
2016,04,30,15,02,17.70
2016,04,30,15,03,17.70
2016,04,30,15,04,17.80
2016,04,30,15,05,17.80
2016,04,30,15,06,17.80
2016,04,30,15,07,17.80
2016,04,30,15,08,17.70
2016,04,30,15,09,17.70
2016,04,30,15,10,17.60
2016,04,30,15,11,17.60
2016,04,30,15,12,17.70
2016,04,30,15,13,17.80
2016,04,30,15,14,17.80
2016,04,30,15,15,17.80
2016,04,30,15,16,17.80
2016,04,30,15,17,17.80
2016,04,30,15,18,17.90
2016,04,30,15,19,17.90
2016,04,30,15,20,18.00
2016,04,30,15,21,18.10
2016,04,30,15,22,18.10
2016,04,30,15,23,18.00
2016,04,30,15,24,17.90
2016,04,30,15,25,17.80
2016,04,30,15,26,17.80
2016,04,30,15,27,17.80
2016,04,30,15,28,17.90
2016,04,30,15,29,17.90
2016,04,30,15,30,18.00
2016,04,30,15,31,18.10
2016,04,30,15,32,18.10
2016,04,30,15,33,18.10
2016,04,30,15,34,18.20
2016,04,30,15,35,18.30
2016,04,30,15,36,18.30
2016,04,30,15,37,18.40
2016,04,30,15,38,18.40
2016,04,30,15,39,18.40
2016,04,30,15,40,18.40
2016,04,30,15,41,18.40
2016,04,30,15,42,18.40
2016,04,30,15,43,18.40
2016,04,30,15,44,18.30
2016,04,30,15,45,18.30
2016,04,30,15,46,18.30
2016,04,30,15,47,18.30
2016,04,30,15,48,18.30
2016,04,30,15,49,18.20
2016,04,30,15,50,18.20
2016,04,30,15,51,18.20
2016,04,30,15,52,18.30
2016,04,30,15,53,18.30
2016,04,30,15,54,18.40
2016,04,30,15,55,18.40
2016,04,30,15,56,18.40
2016,04,30,15,57,18.40
2016,04,30,15,58,18.40
2016,04,30,15,59,18.50
2016,04,30,16,00,18.60
2016,04,30,16,01,18.70
2016,04,30,16,02,18.80
2016,04,30,16,03,18.80
2016,04,30,16,04,18.70
2016,04,30,16,05,18.70
2016,04,30,16,06,18.70
2016,04,30,16,07,18.70
2016,04,30,16,08,18.80
2016,04,30,16,09,18.80
2016,04,30,16,10,18.80
2016,04,30,16,11,18.90
2016,04,30,16,12,18.90
2016,04,30,16,13,19.00
2016,04,30,16,14,19.00
2016,04,30,16,15,19.00
2016,04,30,16,16,19.00
2016,04,30,16,17,19.10
2016,04,30,16,18,19.20
2016,04,30,16,19,19.30
2016,04,30,16,20,19.30
2016,04,30,16,21,19.40
2016,04,30,16,22,19.40
2016,04,30,16,23,19.40
2016,04,30,16,24,19.40
2016,04,30,16,25,19.40
2016,04,30,16,26,19.40
2016,04,30,16,27,19.40
2016,04,30,16,28,19.50
2016,04,30,16,29,19.60
2016,04,30,16,30,19.60
2016,04,30,16,31,19.60
2016,04,30,16,32,19.50
2016,04,30,16,33,19.50
2016,04,30,16,34,19.40
2016,04,30,16,35,19.30
2016,04,30,16,36,19.20
2016,04,30,16,37,19.20
2016,04,30,16,38,19.20
2016,04,30,16,39,19.20
2016,04,30,16,40,19.20
2016,04,30,16,41,19.20
2016,04,30,16,42,19.20
2016,04,30,16,43,19.30
2016,04,30,16,44,19.20
2016,04,30,16,45,19.20
2016,04,30,16,46,19.20
2016,04,30,16,47,19.20
2016,04,30,16,48,19.20
2016,04,30,16,49,19.20
2016,04,30,16,50,19.20
2016,04,30,16,51,19.20
2016,04,30,16,52,19.20
2016,04,30,16,53,19.20
2016,04,30,16,54,19.20
2016,04,30,16,55,19.10
2016,04,30,16,56,19.00
2016,04,30,16,57,19.00
2016,04,30,16,58,19.00
2016,04,30,16,59,19.00
2016,04,30,17,00,19.10
2016,04,30,17,01,19.10
2016,04,30,17,02,19.10
2016,04,30,17,03,19.20
2016,04,30,17,04,19.20
2016,04,30,17,05,19.30
2016,04,30,17,06,19.20
2016,04,30,17,07,19.20
2016,04,30,17,08,19.10
2016,04,30,17,09,19.00
2016,04,30,17,10,18.90
2016,04,30,17,11,18.90
2016,04,30,17,12,19.00
2016,04,30,17,13,19.00
2016,04,30,17,14,19.00
2016,04,30,17,15,19.10
2016,04,30,17,16,19.10
2016,04,30,17,17,19.10
2016,04,30,17,18,19.10
2016,04,30,17,19,19.20
2016,04,30,17,20,19.20
2016,04,30,17,21,19.30
2016,04,30,17,22,19.30
2016,04,30,17,23,19.30
2016,04,30,17,24,19.30
2016,04,30,17,25,19.30
2016,04,30,17,26,19.20
2016,04,30,17,27,19.10
2016,04,30,17,28,19.10
2016,04,30,17,29,19.00
2016,04,30,17,30,18.90
2016,04,30,17,31,18.80
2016,04,30,17,32,18.80
2016,04,30,17,33,18.80
2016,04,30,17,34,18.70
2016,04,30,17,35,18.70
2016,04,30,17,36,18.60
2016,04,30,17,37,18.60
2016,04,30,17,38,18.50
2016,04,30,17,39,18.50